Terminal Aerodrome Forecast
Issued by NWS Nashville, TN

Home | Current Version | Previous Version | Text Only | Print | Product List | Glossary On
Versions: 1 2 3 4 5 6 7 8 9 10 11 12 13 14 15 16 17 18 19 20 21 22 23
000
FTUS44 KOHX 010300 AAA
TAFBNA
TAF AMD
KBNA 010300Z 0103/0124 00000KT P6SM SCT030 OVC045
     FM010500 00000KT 2SM BR SCT007 BKN035
     FM011000 00000KT 1SM BR OVC007
     FM011300 23004KT 6SM BR OVC015
     FM011600 25006KT P6SM BKN035=

USA.gov is the U.S. government's official web portal to all federal, state and local government web resources and services.